Temperature
13 13 12 12 12 12 12 12 12 12 12 12 12 12 12 12 12 12 12 12 11 11 11 11 11 11 11 11 11 11 11 11 11 12 11 11 11 11 11 11 11 11 11
13 13 12 12 12 12 12 12 12 12 12 12 12 12 12 12 12 11 11 11 11 11 11 11 11 11 11 11 11 11 11 11 11 11 11 11 11 10 10 10 10 11 11
13 13 12 12 12 12 12 12 12 12 12 12 12 12 12 12 11 11 11 11 11 11 11 11 11 11 11 11 11 11 11 11 10 11 11 10 10 10 10 10 10 10 10
13 13 12 12 12 12 12 12 12 12 12 12 11 11 11 11 11 11 11 11 11 11 11 11 11 11 10 10 10 10 10 10 10 10 10 11 10 10 10 10 10 10 10
13 13 12 12 12 12 12 12 12 12 12 12 11 11 11 11 11 11 11 11 11 11 11 11 11 11 10 10 10 10 10 10 10 10 10 10 10 10 10 10 10 10 10
13 12 12 12 12 12 12 12 12 12 12 11 11 11 11 11 12 11 11 11 11 11 11 11 11 10 10 10 10 10 10 9 10 10 10 10 10 10 10 9 10 10 10
12 12 12 12 12 12 12 12 12 12 12 11 11 11 11 11 12 11 11 11 11 11 10 10 10 11 10 10 10 9 9 9 9 9 9 9 9 9 9 9 9 9 9
13 12 12 12 12 12 12 12 12 12 12 11 11 11 11 11 11 11 11 11 11 11 10 10 10 10 10 10 9 9 9 9 9 9 9 9 9 9 9 9 9 9 9
13 12 12 12 12 12 12 12 12 12 11 11 11 11 11 11 11 11 11 11 11 10 10 10 10 10 10 10 9 9 9 9 9 9 9 9 9 9 9 9 9 9 9
12 12 12 12 12 12 12 12 12 12 11 11 11 11 11 11 11 11 11 11 11 11 10 10 10 10 10 9 9 9 8 8 8 8 8 9 9 9 9 8 8 8 8
12 12 12 12 12 12 12 12 12 12 12 11 11 11 11 11 11 11 11 11 11 11 10 10 10 10 9 9 9 9 8 8 8 8 8 8 8 8 8 8 8 8 8
12 12 12 12 12 12 12 12 12 12 12 12 12 12 12 12 12 11 11 11 11 10 10 10 10 10 9 9 9 9 9 8 8 8 9 8 8 8 8 8 7 7 7
12 12 12 12 12 12 12 12 12 12 12 12 12 12 12 12 12 11 11 11 11 10 10 10 10 9 9 9 9 9 8 8 8 8 8 8 8 8 7 7 7 7 7
12 12 12 12 12 12 12 12 12 12 12 12 12 12 12 12 11 11 11 11 11 10 10 10 10 9 9 9 9 9 8 8 8 8 8 8 8 8 7 7 7 7 7
12 12 12 12 12 12 12 12 12 12 12 12 12 12 12 12 11 11 11 10 10 10 10 10 9 9 9 9 9 9 8 8 8 8 8 8 8 8 7 7 7 7 7
12 12 12 12 12 12 12 12 12 12 12 12 12 12 11 11 11 11 11 10 10 10 10 10 10 10 9 9 9 9 8 8 8 8 8 7 7 7 7 7 7 7 7
12 12 12 12 12 12 12 12 12 12 12 12 12 11 11 11 11 11 10 10 10 10 10 10 10 9 9 9 9 9 8 8 8 7 7 7 7 7 7 7 7 7 7
12 12 12 12 12 12 12 13 13 13 12 12 12 11 11 11 11 10 10 10 10 10 10 9 9 9 9 9 9 8 8 8 7 7 7 7 7 7 7 7 7 6 6
12 12 12 12 12 12 12 13 13 13 12 12 12 11 11 11 11 10 10 10 10 10 10 9 9 9 9 8 8 8 8 8 7 7 7 6 6 6 6 6 6 6 6
12 12 12 12 12 12 12 13 13 13 12 12 12 11 11 11 10 10 10 10 10 10 9 9 9 9 8 8 8 8 8 7 7 7 7 6 6 6 6 6 6 6 6
12 12 12 12 12 12 12 12 12 12 12 12 12 11 11 10 10 10 10 10 10 9 9 9 9 9 8 8 8 8 7 7 7 7 6 6 6 6 6 6 6 6 6
12 12 12 12 12 12 12 12 12 12 12 12 12 11 11 10 10 10 10 10 9 9 9 8 8 8 8 8 8 7 7 7 7 6 6 6 6 6 6 6 6 6 6
12 12 12 12 12 12 12 12 12 12 12 12 11 11 11 10 10 10 10 9 9 9 9 8 8 8 8 8 7 7 7 7 6 6 6 6 6 5 5 5 6 6 6
12 12 12 12 12 12 12 12 12 12 12 11 11 11 11 10 10 10 9 9 9 9 8 8 8 8 7 7 7 7 7 7 6 6 6 6 5 5 5 5 5 5 5
12 11 11 12 12 11 11 11 11 11 11 11 11 11 11 10 10 10 9 9 9 8 8 8 8 7 7 7 7 7 7 7 6 6 6 5 5 5 5 5 5 5 5
11 11 11 11 11 11 11 11 11 11 11 11 11 11 10 10 10 9 9 9 8 8 8 8 7 7 7 7 7 7 6 6 6 6 6 5 5 5 5 5 5 5 5
Wind_Speed
2 2 3 3 3 3 3 3 3 3 3 3 3 3 3 3 3 3 3 3 3 3 3 4 5 5 5 4 5 5 5 5 6 6 5 4 5 6 5 6 6 7 6
2 3 3 3 3 3 3 3 2 2 3 3 3 2 3 2 2 3 3 3 3 3 3 3 4 4 4 5 4 5 4 4 5 6 6 5 5 5 5 6 6 6 6
2 2 2 3 3 3 2 2 2 2 3 3 2 2 2 2 2 2 2 3 3 3 4 4 4 4 4 4 5 5 4 4 4 5 5 4 5 4 5 6 6 6 7
2 2 2 2 3 3 2 2 2 2 3 3 2 2 2 2 2 2 2 2 3 3 3 3 4 4 4 4 4 4 4 4 5 5 5 4 4 4 5 5 6 5 6
2 3 2 2 2 2 2 2 2 2 2 2 2 2 2 2 2 2 2 2 2 2 3 3 3 2 3 4 4 4 5 5 5 5 5 5 4 4 5 5 6 6 6
3 3 2 2 2 2 2 2 2 2 2 2 2 2 2 2 2 3 4 3 3 3 3 3 3 2 2 3 4 5 6 6 6 6 6 6 6 6 6 6 6 6 6
3 3 2 2 2 2 2 2 2 2 2 2 3 2 2 2 1 2 4 3 3 3 3 3 3 3 3 4 3 5 6 6 7 7 8 8 8 7 7 8 7 7 7
3 3 3 3 3 3 3 3 3 3 3 3 3 3 3 2 1 3 4 4 3 4 3 3 3 4 4 4 5 5 5 5 5 6 7 8 8 7 7 7 8 7 7
3 3 4 3 4 4 4 3 3 3 3 3 3 3 3 3 1 2 4 3 3 3 3 3 3 3 2 3 4 5 5 5 4 3 5 6 7 7 7 6 6 6 7
4 4 4 4 4 5 5 4 4 3 4 4 3 4 4 4 1 2 4 3 3 3 2 2 1 2 3 3 4 5 6 6 6 6 5 6 7 6 8 7 6 6 6
4 4 4 4 4 5 4 4 4 4 4 4 4 4 4 3 2 3 4 4 4 4 3 3 1 2 2 4 5 5 6 7 7 7 6 5 5 4 4 4 5 6 6
4 5 4 4 4 3 3 4 4 4 4 4 4 4 4 2 2 2 4 5 6 4 4 3 2 1 3 5 4 5 7 8 6 6 5 5 5 5 4 4 5 5 6
5 5 5 4 4 4 4 4 4 5 4 4 4 4 3 2 2 4 5 5 5 4 3 3 4 4 5 5 5 6 6 5 5 5 6 6 5 5 5 4 5 5 6
5 5 4 4 4 4 4 5 4 4 4 4 4 4 4 3 2 2 2 2 4 4 4 4 7 8 7 5 4 4 4 4 5 6 6 6 5 5 5 4 4 4 4
5 5 5 5 4 4 4 4 5 4 3 4 5 5 5 4 3 4 4 3 3 3 4 4 4 4 3 3 3 3 3 4 5 5 5 6 5 5 5 4 4 5 6
5 5 5 5 4 4 4 4 3 4 1 3 4 5 4 3 3 3 4 4 5 5 4 4 4 4 4 4 4 4 4 4 4 5 5 5 5 5 5 5 5 5 6
5 5 5 4 4 4 4 5 4 3 5 6 6 5 5 4 4 4 4 5 5 5 4 4 4 4 4 4 4 4 4 4 4 5 5 5 5 5 5 5 5 5 6
6 5 5 5 5 5 5 5 5 4 3 2 5 7 7 6 5 4 4 4 3 3 3 4 4 4 5 4 4 4 4 4 3 4 4 5 5 5 5 5 5 6 6
6 5 4 5 5 5 5 5 5 4 4 3 3 3 6 6 7 6 5 3 3 3 3 4 4 4 5 4 4 4 4 4 4 4 4 5 5 5 5 5 5 5 6
6 5 5 5 5 5 5 5 4 4 4 4 3 3 2 3 3 3 3 3 3 4 4 4 4 4 5 5 5 4 4 4 4 5 5 5 5 5 5 6 6 5 5
5 4 6 6 5 4 5 5 5 5 4 4 3 2 2 3 4 3 3 3 3 4 4 4 4 5 5 4 4 4 5 4 4 4 4 4 5 5 5 5 5 6 5
5 5 4 4 4 5 5 5 5 4 4 4 3 2 4 4 4 3 3 3 3 3 4 5 5 5 5 5 4 5 5 5 4 4 4 4 4 4 5 5 5 5 5
6 5 5 5 5 4 6 6 5 5 4 4 4 3 3 3 3 3 3 3 3 3 4 4 5 5 4 4 4 4 5 5 4 4 4 4 4 4 4 5 6 6 5
6 6 5 5 5 5 6 6 6 5 5 4 4 4 3 3 3 3 3 3 3 3 3 3 4 5 6 5 4 4 4 5 5 4 5 5 5 4 4 4 5 5 5
6 5 5 5 5 5 6 6 6 5 5 4 4 4 3 3 3 3 3 3 4 3 4 4 3 4 5 5 5 5 6 5 5 5 4 4 5 5 5 5 5 5 4
6 6 6 5 5 5 5 5 6 5 4 4 4 3 3 3 3 3 3 3 3 3 3 3 3 4 5 4 5 5 5 4 5 6 6 4 4 4 4 4 5 5 5
Wind_Direction
280 276 277 274 270 272 277 284 290 294 299 295 288 283 285 288 281 274 278 273 267 266 265 264 268 275 277 274 270 268 266 267 272 284 289 282 277 278 271 264 263 260 245
266 258 263 270 268 269 276 286 293 295 295 287 278 279 285 291 293 276 273 278 273 268 268 271 274 271 270 270 272 272 273 269 269 278 283 279 276 274 272 266 266 264 264
276 267 269 266 265 268 281 289 296 293 292 288 282 288 295 298 293 280 273 276 281 280 276 275 274 275 272 274 274 275 273 269 267 270 274 280 274 279 274 268 267 266 268
285 282 274 269 266 264 276 281 277 278 284 284 283 290 294 295 294 279 268 273 281 284 284 280 276 271 272 277 276 275 277 276 268 270 275 275 276 278 276 275 273 265 266
279 275 267 263 258 254 265 265 268 273 279 285 287 282 289 290 302 295 279 277 282 287 288 286 283 285 304 293 295 298 292 284 278 275 274 274 277 284 282 280 278 276 266
272 273 265 255 250 247 250 252 259 270 280 283 286 293 296 310 14 338 298 282 283 282 286 290 286 261 261 244 264 277 282 283 289 287 284 285 284 283 286 283 281 280 278
265 268 256 245 237 244 256 263 266 269 274 277 282 286 292 325 348 294 290 280 278 278 283 286 295 320 299 292 261 243 257 256 260 273 282 287 289 292 286 282 280 281 282
267 268 266 255 250 257 263 266 270 265 263 266 271 273 285 296 252 260 273 258 276 277 274 279 292 299 304 304 292 288 288 288 273 265 277 283 286 290 283 280 281 274 270
275 280 278 271 263 260 264 270 272 264 260 262 265 273 278 280 240 251 273 272 274 276 282 286 286 292 350 304 282 288 294 296 279 252 270 273 280 276 274 276 277 274 276
288 287 284 278 268 265 266 266 263 261 262 264 269 274 276 281 226 219 262 268 280 284 278 270 259 284 332 304 286 290 294 301 304 296 271 255 256 248 240 254 270 275 280
287 281 276 273 262 259 260 260 255 253 264 272 274 273 274 278 217 200 245 264 285 291 295 291 307 147 256 281 282 287 290 289 286 285 286 286 279 270 262 261 269 274 280
281 275 273 270 265 257 254 258 256 257 252 252 257 269 270 256 250 208 214 245 279 282 287 294 316 128 272 273 275 284 282 280 281 287 292 296 298 299 297 286 273 264 270
276 273 274 272 268 265 259 257 255 251 262 271 269 273 280 271 211 184 201 219 242 262 287 313 300 272 267 264 243 250 263 273 284 291 297 301 304 308 298 282 266 250 254
274 273 268 264 260 262 266 263 265 270 276 284 289 290 294 288 294 290 262 230 216 243 274 258 235 242 246 263 267 248 259 279 289 292 298 300 301 299 292 293 290 281 270
275 271 264 258 259 264 262 270 270 282 298 290 298 304 303 302 353 354 311 300 299 294 285 270 271 273 274 277 280 282 282 281 282 290 294 295 294 295 294 293 289 287 281
259 261 265 266 261 261 263 258 231 251 186 219 258 284 307 334 349 336 307 296 293 288 278 272 278 283 291 294 294 292 290 291 291 291 293 295 295 294 294 293 289 285 286
262 265 267 270 264 262 267 271 267 231 208 218 223 228 246 282 296 289 273 264 259 250 258 279 287 293 296 296 299 302 305 306 303 297 296 299 297 297 297 295 293 293 290
261 253 258 267 266 267 270 272 273 274 264 251 214 203 211 232 249 255 254 250 253 240 271 285 294 295 294 295 299 298 297 297 293 292 295 297 296 293 292 293 292 296 294
262 263 262 271 271 272 276 278 280 279 277 277 279 204 195 213 214 225 227 257 281 288 292 296 299 301 300 296 296 294 289 287 289 287 290 292 292 288 288 291 292 289 284
252 243 254 263 264 269 273 276 280 278 277 278 279 288 253 248 265 246 234 266 281 292 298 300 303 304 303 300 298 296 295 292 289 284 288 286 287 287 286 287 289 289 287
265 243 221 251 261 270 275 279 280 282 282 279 282 295 295 276 277 283 289 287 296 304 308 308 305 304 303 300 300 301 300 294 290 293 295 291 288 287 289 289 291 291 290
275 272 262 261 263 264 273 276 279 282 284 283 282 248 201 255 278 288 297 302 311 315 313 308 307 309 313 313 308 305 305 303 303 301 295 294 291 286 285 287 289 292 290
274 269 268 266 262 263 269 273 276 275 276 273 268 268 259 269 276 287 298 305 307 310 312 313 309 313 322 321 313 306 307 308 305 299 291 288 288 284 285 289 294 295 298
273 269 270 272 270 271 271 272 273 270 268 266 266 267 270 275 276 283 288 294 302 303 307 312 317 325 332 331 324 315 327 327 314 297 287 286 282 280 282 286 289 292 294
274 271 269 268 269 271 273 275 274 273 270 265 265 267 267 266 266 267 276 286 288 294 310 317 320 327 331 332 336 348 10 354 326 308 283 277 279 282 287 292 295 296 294
278 275 271 271 271 270 270 271 272 271 266 263 264 268 267 265 267 272 274 281 289 298 308 313 329 334 331 335 352 8 9 343 319 304 289 279 283 289 292 284 287 287 290
Height
1493 1493 1492 1491 1491 1490 1490 1489 1488 1487 1486 1485 1485 1484 1483 1482 1481 1480 1480 1479 1479 1479 1478 1478 1477 1477 1477 1476 1476 1476 1475 1475 1473 1472 1472 1471 1470 1469 1469 1468 1468 1467 1467
1492 1491 1490 1490 1489 1489 1488 1487 1486 1485 1485 1484 1483 1483 1482 1481 1479 1479 1478 1478 1477 1477 1476 1476 1475 1475 1474 1473 1473 1472 1472 1471 1470 1469 1469 1468 1468 1467 1466 1465 1465 1464 1464
1491 1490 1489 1488 1488 1487 1487 1486 1485 1484 1483 1483 1482 1481 1480 1479 1478 1477 1477 1476 1476 1475 1474 1474 1473 1473 1472 1471 1470 1470 1469 1469 1468 1467 1466 1466 1465 1464 1463 1462 1461 1460 1460
1489 1488 1487 1486 1486 1485 1485 1484 1483 1483 1482 1481 1481 1480 1479 1478 1477 1476 1476 1475 1474 1474 1473 1472 1471 1471 1470 1469 1468 1467 1467 1466 1465 1465 1464 1463 1462 1461 1460 1459 1458 1457 1456
1488 1487 1486 1485 1485 1484 1484 1483 1482 1482 1481 1480 1480 1479 1478 1477 1476 1475 1475 1474 1473 1472 1471 1470 1469 1468 1467 1467 1466 1465 1464 1464 1463 1462 1461 1460 1460 1459 1458 1456 1455 1454 1452
1486 1486 1485 1484 1483 1483 1483 1482 1481 1480 1480 1479 1478 1478 1477 1476 1475 1474 1473 1473 1472 1471 1470 1469 1468 1466 1465 1464 1463 1462 1462 1461 1461 1460 1459 1458 1456 1456 1454 1453 1452 1451 1449
1485 1485 1484 1483 1482 1482 1482 1481 1480 1479 1478 1478 1477 1476 1475 1474 1473 1472 1472 1471 1470 1469 1468 1467 1466 1465 1464 1463 1461 1460 1459 1458 1458 1457 1456 1454 1453 1452 1451 1449 1448 1447 1445
1484 1484 1483 1482 1482 1481 1480 1480 1479 1478 1477 1476 1475 1475 1474 1473 1472 1471 1470 1469 1468 1467 1466 1465 1464 1463 1462 1460 1459 1458 1457 1456 1455 1454 1452 1451 1450 1448 1447 1446 1444 1443 1441
1483 1483 1482 1481 1480 1480 1479 1478 1478 1477 1476 1475 1474 1473 1472 1471 1470 1469 1468 1468 1466 1465 1464 1463 1462 1461 1459 1458 1457 1456 1455 1454 1452 1451 1449 1447 1446 1444 1443 1442 1441 1440 1438
1482 1481 1480 1479 1479 1478 1477 1477 1476 1475 1474 1474 1473 1472 1471 1470 1468 1467 1466 1466 1465 1463 1462 1461 1459 1458 1457 1456 1454 1453 1452 1451 1449 1448 1446 1444 1442 1441 1439 1438 1437 1436 1435
1480 1479 1478 1477 1477 1476 1475 1475 1474 1474 1473 1472 1471 1470 1469 1467 1466 1466 1465 1463 1463 1462 1461 1459 1458 1456 1454 1453 1451 1450 1449 1447 1446 1445 1443 1442 1440 1438 1436 1435 1433 1433 1432
1478 1478 1477 1476 1475 1475 1474 1473 1472 1472 1471 1470 1469 1468 1467 1466 1465 1464 1462 1461 1460 1459 1458 1457 1455 1453 1452 1450 1449 1447 1446 1444 1444 1442 1441 1439 1437 1435 1434 1432 1430 1429 1428
1476 1476 1475 1474 1473 1473 1472 1472 1471 1470 1470 1469 1468 1467 1466 1464 1463 1461 1460 1459 1457 1456 1455 1453 1452 1450 1449 1447 1446 1444 1443 1442 1441 1439 1438 1436 1434 1432 1430 1428 1427 1425 1424
1474 1474 1473 1472 1472 1471 1470 1470 1469 1469 1468 1467 1466 1465 1464 1463 1461 1460 1458 1457 1455 1454 1452 1451 1449 1448 1446 1445 1443 1442 1441 1439 1438 1436 1434 1433 1431 1429 1428 1426 1425 1423 1422
1472 1472 1471 1471 1470 1469 1468 1468 1467 1466 1465 1465 1464 1463 1462 1461 1459 1458 1456 1455 1453 1451 1450 1448 1447 1446 1445 1443 1442 1440 1439 1437 1435 1433 1432 1430 1428 1427 1425 1424 1422 1421 1420
1470 1470 1469 1469 1468 1467 1466 1466 1464 1464 1463 1461 1461 1460 1459 1458 1456 1455 1453 1452 1450 1449 1448 1446 1445 1444 1442 1441 1439 1438 1436 1434 1432 1431 1429 1427 1426 1424 1423 1422 1420 1419 1417
1467 1467 1467 1466 1466 1465 1464 1464 1463 1462 1460 1459 1458 1457 1456 1455 1454 1452 1451 1449 1448 1446 1445 1444 1443 1441 1440 1438 1437 1435 1433 1432 1430 1428 1426 1425 1423 1422 1420 1419 1417 1416 1414
1465 1464 1464 1464 1463 1463 1462 1461 1460 1459 1458 1457 1456 1454 1453 1452 1451 1450 1448 1447 1446 1444 1443 1442 1440 1439 1437 1436 1434 1432 1430 1429 1427 1425 1424 1422 1421 1419 1418 1416 1414 1413 1411
1462 1462 1461 1461 1460 1460 1459 1458 1457 1456 1455 1455 1454 1452 1451 1450 1448 1447 1446 1445 1444 1443 1441 1439 1438 1436 1435 1433 1431 1429 1427 1426 1424 1422 1421 1419 1418 1416 1415 1413 1411 1409 1408
1459 1458 1458 1458 1457 1457 1456 1456 1455 1454 1453 1452 1451 1450 1449 1447 1446 1445 1444 1443 1442 1441 1439 1437 1436 1434 1432 1430 1428 1427 1425 1423 1421 1419 1418 1416 1415 1413 1411 1410 1408 1407 1405
1456 1456 1455 1455 1454 1454 1454 1453 1452 1451 1450 1449 1449 1447 1446 1445 1445 1444 1443 1441 1440 1439 1437 1435 1433 1431 1429 1427 1425 1424 1422 1420 1418 1416 1415 1413 1412 1410 1408 1407 1405 1404 1402
1453 1453 1453 1452 1452 1452 1451 1451 1450 1449 1447 1447 1446 1445 1443 1443 1443 1442 1441 1439 1438 1436 1435 1433 1431 1429 1427 1425 1423 1421 1419 1417 1415 1413 1412 1410 1409 1407 1405 1404 1403 1401 1400
1451 1450 1450 1450 1449 1449 1448 1448 1447 1446 1445 1444 1443 1442 1442 1441 1440 1439 1438 1437 1436 1434 1432 1430 1428 1427 1424 1422 1420 1418 1416 1414 1412 1411 1409 1408 1406 1405 1403 1402 1400 1399 1397
1448 1447 1447 1447 1446 1446 1445 1445 1444 1443 1442 1441 1441 1440 1439 1438 1438 1437 1436 1435 1433 1432 1430 1428 1426 1424 1422 1420 1417 1416 1413 1411 1409 1408 1407 1405 1404 1403 1401 1400 1398 1397 1395
1445 1445 1444 1444 1443 1442 1442 1441 1441 1440 1439 1438 1438 1437 1436 1436 1435 1434 1433 1432 1431 1429 1427 1425 1423 1421 1419 1417 1415 1413 1411 1408 1407 1405 1404 1403 1402 1401 1399 1398 1396 1394 1393
1442 1442 1441 1441 1440 1439 1438 1438 1437 1437 1436 1435 1435 1434 1434 1433 1432 1431 1430 1429 1428 1426 1425 1423 1421 1419 1417 1415 1413 1411 1409 1407 1405 1403 1402 1401 1400 1398 1397 1396 1394 1392 1391